TIANYAN 01

Last updated on Mon Sep 15 2025 00:03:09 GMT+0000 (Coordinated Universal Time)

1 44881U 19093C 25257.27490247 .00000706 00000+0 87253-4 0 9994 2 44881 97.7854 330.8793 0012296 274.4838 85.4973 14.85786895310434
UTC large
Height (km)
Speed (km/s)
/
Latitude / Longitude
Inclination (degrees)
Orbital Period (minutes)
Azimuth
Elevation
Range (km)
Doppler Factor

Next 0 passes for location: London (51.5072 / 0.1276)

Sorry there are no passes over London.